Location: Orange Harbor Mobile Home Park
(26.6923°N, 81.7937°W)
Time: 07:54:34
(UTC+00:00)

Skynet4D Del rocket - Pass Details

Date: 19 September 2020
Orbit: 763 x 1291 km, 26.9° (Epoch: 29 October)

Event Time Altitude Azimuth Distance (km) Brightness Sun altitude
Exits shadow 10:09:49 22° 274° (W) 1,701 4.7 -15.2°
Maximum altitude 10:13:34 89° 357° (N) 863 3.7 -14.4°
Drops below altitude 10° 10:19:57 10° 94° (E) 2,668 7.7 -13.0°
Sets 10:22:46 0° 95° (E) 3,701 8.8 -12.4°
